WMT5577 LROP-EFTU

Flight info

Callsign WMT5577
Flight time N/A
Altitude 32000
Route BUKEL DCT IXUBA DCT KENIN DCT VELAX DCT ETUBO DCT VABER DCT BERIL DCT PETOT DCT UPAPU
Aircraft A321/M-SDE3FGHIRWY/LB1

Departure

Time 2026-05-01 15:19
Airport Bucharest Henri Coandă International Airport (LROP)

Arrival

Time N/A
Airport Turku Airport (EFTU)
Time Latitude Longitude Altitude Speed Heading
2026-05-01 14:38 44.57141 26.08058 321 ft 0 kts 174°
2026-05-01 15:09 44.57142 26.08058 320 ft 1 kts 174°
2026-05-01 15:09 44.57166 26.08052 320 ft 4 kts 156°
2026-05-01 15:09 44.57186 26.08032 320 ft 4 kts 115°
2026-05-01 15:10 44.57190 26.08009 318 ft 0 kts 84°
2026-05-01 15:14 44.57191 26.08016 319 ft 1 kts 83°
2026-05-01 15:14 44.57192 26.08029 320 ft 2 kts 83°
2026-05-01 15:14 44.57202 26.08149 320 ft 9 kts 83°
2026-05-01 15:15 44.57212 26.08338 320 ft 10 kts 117°
2026-05-01 15:15 44.57079 26.08378 320 ft 12 kts 174°
2026-05-01 15:16 44.56899 26.08402 320 ft 13 kts 181°
2026-05-01 15:16 44.56808 26.08208 320 ft 12 kts 246°
2026-05-01 15:17 44.56747 26.07963 320 ft 14 kts 254°
2026-05-01 15:18 44.56572 26.07675 320 ft 16 kts 173°
2026-05-01 15:18 44.56475 26.07726 319 ft 14 kts 113°
2026-05-01 15:19 44.56548 26.08761 321 ft 102 kts 84°
2026-05-01 15:19 44.56776 26.11717 385 ft 192 kts 83°
2026-05-01 15:19 44.56924 26.13590 1028 ft 193 kts 82°
2026-05-01 15:20 44.57207 26.17392 2038 ft 210 kts 82°
2026-05-01 15:20 44.57367 26.19542 2163 ft 234 kts 83°
2026-05-01 15:20 44.57546 26.21901 2544 ft 249 kts 82°
2026-05-01 15:21 44.57728 26.24341 3236 ft 253 kts 81°
2026-05-01 15:21 44.58211 26.26669 3924 ft 254 kts 59°
2026-05-01 15:21 44.59366 26.28513 4605 ft 254 kts 33°
2026-05-01 15:21 44.60987 26.29459 5301 ft 256 kts
2026-05-01 15:22 44.64577 26.29590 6706 ft 261 kts
2026-05-01 15:22 44.66401 26.29616 7396 ft 263 kts
2026-05-01 15:22 44.68230 26.29647 8114 ft 263 kts
2026-05-01 15:23 44.70062 26.29681 8855 ft 264 kts
2026-05-01 15:23 44.71897 26.29716 9592 ft 264 kts
2026-05-01 15:23 44.73714 26.29751 10301 ft 265 kts
2026-05-01 15:23 44.75599 26.29786 10620 ft 281 kts
2026-05-01 15:24 44.77625 26.29771 10730 ft 301 kts 356°
2026-05-01 15:24 44.79751 26.29238 10877 ft 321 kts 344°
2026-05-01 15:24 44.81874 26.28006 10995 ft 340 kts 332°
2026-05-01 15:24 44.83859 26.26032 11162 ft 359 kts 320°
2026-05-01 15:25 44.85527 26.23363 11598 ft 369 kts 307°
2026-05-01 15:25 44.86906 26.20282 12120 ft 374 kts 304°
2026-05-01 15:25 44.88285 26.17157 12668 ft 378 kts 304°
2026-05-01 15:25 44.89666 26.14028 13180 ft 382 kts 304°
2026-05-01 15:26 44.91077 26.10828 13723 ft 387 kts 304°
2026-05-01 15:26 44.92505 26.07586 14237 ft 391 kts 304°
2026-05-01 15:26 44.93760 26.04733 14660 ft 394 kts 304°
2026-05-01 15:26 44.94786 26.02398 15022 ft 396 kts 304°
2026-05-01 15:27 44.95163 26.01536 15160 ft 397 kts 304°
2026-05-01 15:28 44.98085 25.94860 16239 ft 402 kts 304°
2026-05-01 15:28 44.99537 25.91537 16751 ft 404 kts 304°
2026-05-01 15:28 45.01018 25.88145 17239 ft 407 kts 304°
2026-05-01 15:29 45.04015 25.81275 18174 ft 413 kts 304°
2026-05-01 15:29 45.05515 25.77819 18476 ft 406 kts 304°
2026-05-01 15:29 45.08908 25.71508 18754 ft 410 kts 319°
2026-05-01 15:30 45.13325 25.66467 19492 ft 414 kts 324°
2026-05-01 15:31 45.22517 25.56269 21058 ft 424 kts 324°
2026-05-01 15:31 45.27188 25.51080 21805 ft 429 kts 324°
2026-05-01 15:32 45.31875 25.45863 22589 ft 432 kts 324°
2026-05-01 15:32 45.36619 25.40575 23397 ft 435 kts 324°
2026-05-01 15:33 45.43806 25.32526 24374 ft 441 kts 324°
2026-05-01 15:34 45.51059 25.24364 25224 ft 448 kts 324°